Temperature
31 32 32 33 33 33 33 33 32 32 32 32 32 31 31 29 28 28 27 26 25 24 23 22 21 21 21 20 20 20 20 19 19 19 18 18 18 18 18 18 18 18 18 18
31 32 32 32 32 32 32 32 32 32 31 32 32 32 31 30 29 28 28 26 25 25 24 22 21 21 21 21 20 20 20 20 19 19 19 18 18 18 18 18 18 18 18 18
31 32 31 31 31 32 32 32 32 32 31 32 32 32 31 30 29 28 28 27 27 26 25 23 22 22 21 21 21 20 20 20 20 19 19 18 18 18 18 18 18 18 18 18
31 31 31 31 31 32 32 32 32 32 32 32 32 32 32 31 30 30 28 28 27 26 25 24 23 22 22 21 21 21 21 20 20 19 19 19 18 18 18 18 18 18 18 18
31 31 31 31 32 32 32 32 32 32 32 32 32 32 32 32 31 31 30 29 28 27 26 24 23 23 22 22 21 21 21 20 20 20 19 19 18 18 18 18 18 18 18 18
31 31 31 32 32 32 31 31 31 32 32 31 31 31 32 33 32 32 31 29 28 27 26 25 24 23 22 22 21 21 21 21 20 20 19 19 19 18 18 18 18 18 18 18
29 30 31 31 31 31 31 31 31 30 31 31 31 31 32 32 32 32 31 30 28 27 26 25 24 23 22 22 22 21 21 21 21 20 19 19 19 18 18 18 18 18 18 18
29 30 31 31 31 31 31 32 30 30 30 31 30 31 32 32 31 30 30 30 28 27 27 26 24 24 23 22 22 21 21 21 21 20 20 19 19 19 18 18 18 18 18 18
30 30 31 31 32 32 31 32 33 32 31 31 31 32 32 32 32 31 30 30 28 28 27 26 25 24 23 22 22 22 21 21 20 20 20 19 19 19 18 18 18 18 18 18
30 30 30 30 30 30 32 32 31 31 29 29 30 31 32 32 32 32 31 30 29 27 27 26 25 24 23 23 22 21 21 21 20 20 20 19 19 19 19 18 18 18 18 18
30 29 30 30 30 31 30 30 31 31 31 30 30 31 33 32 32 32 31 30 29 28 27 26 25 24 23 23 22 21 21 21 20 20 20 19 19 19 18 18 18 18 18 18
29 29 29 30 31 31 31 31 31 30 29 30 31 32 33 32 32 31 31 29 28 28 27 26 25 24 23 23 22 22 21 21 20 20 20 20 19 19 18 18 18 18 18 18
28 28 28 29 29 29 30 31 31 31 30 30 30 31 32 32 31 30 30 28 27 27 26 26 25 24 24 23 23 22 21 21 20 20 20 20 19 19 19 18 18 18 18 18
27 28 28 29 30 30 29 30 30 30 30 30 30 31 32 32 31 30 29 28 27 26 26 25 25 24 23 23 22 22 21 21 21 20 20 20 19 19 18 18 18 18 18 18
27 27 28 29 30 30 30 30 30 30 31 31 31 31 32 32 31 29 28 27 27 26 25 25 24 23 23 23 22 22 21 21 21 20 20 20 19 19 19 18 18 18 18 17
25 26 27 28 29 29 29 30 30 30 30 31 31 31 32 31 29 28 27 26 26 26 25 24 24 23 23 22 22 22 22 21 21 20 20 20 19 19 19 19 18 18 18 17
25 25 26 27 28 28 28 29 30 30 30 30 30 31 31 30 29 27 26 26 25 25 25 24 24 23 22 22 22 22 22 21 21 20 20 19 19 19 19 18 18 18 18 17
23 24 25 27 27 26 29 30 30 30 29 30 30 30 30 28 27 26 25 25 25 24 24 24 23 23 22 22 22 22 22 21 21 20 20 20 19 19 19 18 18 18 18 17
23 23 25 26 26 27 28 28 28 28 28 29 29 29 28 27 26 26 24 23 23 22 22 22 22 23 22 22 22 22 21 21 20 20 19 19 19 19 19 18 18 18 17 17
23 22 24 25 25 26 27 27 26 27 27 27 27 27 27 27 29 27 22 21 21 21 21 21 21 21 21 21 21 21 21 20 20 19 19 19 19 19 18 18 17 17 17 17
22 22 24 25 25 27 26 25 25 26 26 25 25 25 25 26 25 22 21 20 20 20 20 20 20 20 20 21 21 20 20 20 20 19 19 18 18 18 18 17 17 17 16 16
23 24 23 24 25 25 23 24 25 24 22 23 23 23 23 22 21 20 20 19 19 19 19 19 19 20 20 20 20 20 20 19 19 18 18 18 17 17 17 17 17 16 16 15
23 23 24 24 23 21 20 21 20 20 21 21 21 21 21 21 20 19 19 18 18 18 18 18 18 19 19 19 19 19 19 18 18 18 17 17 17 17 16 16 16 15 15 15
20 20 21 21 21 20 19 19 19 19 19 19 20 20 20 20 19 18 18 17 17 17 17 17 18 18 18 18 18 18 18 17 17 17 17 16 16 16 16 15 15 15 14 14
19 20 20 20 20 19 19 18 18 18 18 19 19 19 19 19 18 18 17 17 17 16 17 17 17 17 17 17 17 17 17 17 16 16 16 15 15 15 15 15 15 14 14 14
19 19 20 20 19 19 18 17 17 17 17 17 18 18 18 18 17 17 17 16 16 16 16 16 16 16 16 16 16 16 16 16 16 15 15 15 14 14 14 14 14 14 14 13
Wind_Speed
5 9 10 6 5 4 4 4 3 1 1 4 5 4 4 8 10 10 10 11 12 12 11 11 11 10 10 10 10 11 10 9 8 7 8 7 6 6 6 6 7 8 8 8
9 11 6 3 4 5 6 6 5 3 1 3 3 4 4 7 10 10 11 11 12 12 11 11 11 11 11 11 11 11 11 11 10 8 7 5 5 5 6 5 6 8 8 8
14 5 4 7 8 8 8 7 4 3 3 5 5 6 6 6 8 9 11 11 11 12 12 12 12 11 11 11 11 10 11 11 11 9 7 6 5 5 5 6 6 7 8 9
11 7 7 9 10 10 8 4 3 4 6 3 4 4 4 7 8 10 11 12 13 12 12 12 12 11 11 11 11 11 10 10 10 10 9 9 7 6 6 5 5 6 7 8
9 8 10 12 10 10 4 3 4 5 6 6 5 7 2 6 7 9 10 12 12 13 13 13 12 11 10 10 10 10 10 10 10 10 9 9 8 6 5 5 5 6 6 7
7 5 7 7 6 6 7 6 5 6 8 9 5 7 3 4 4 5 7 9 11 12 13 12 11 10 9 9 9 10 10 10 10 10 10 10 8 7 6 6 5 5 5 5
11 11 8 7 8 9 10 10 8 8 8 7 3 6 3 1 1 3 5 8 10 12 12 12 12 12 10 10 10 10 10 10 10 10 10 9 8 7 7 7 6 6 5 5
14 13 14 12 13 10 14 14 10 8 7 5 6 6 2 1 1 3 5 8 10 12 12 12 13 12 11 11 10 10 10 9 9 9 8 8 7 6 5 6 5 5 5 4
11 11 9 9 9 11 13 14 11 9 8 7 5 4 4 4 4 6 7 9 11 12 12 12 12 12 11 10 10 10 9 9 9 9 8 7 7 6 5 5 5 5 5 4
8 9 10 8 8 5 9 10 8 10 9 10 8 9 5 5 5 7 8 9 10 11 12 12 11 11 11 10 10 9 9 9 8 8 7 6 6 6 5 5 5 5 5 5
12 10 11 11 13 14 10 11 10 10 10 9 8 6 3 4 3 5 7 8 10 12 12 12 11 11 11 10 10 10 9 9 8 8 7 6 6 5 5 5 5 5 5 5
12 10 12 14 8 6 13 15 14 12 10 10 10 5 5 2 2 2 4 7 8 10 11 12 12 12 11 11 11 10 10 9 9 8 7 7 6 6 5 5 5 5 5 5
10 9 12 13 12 10 12 14 15 14 11 12 13 8 5 3 2 2 3 5 7 9 11 12 12 12 12 11 11 10 10 9 9 9 8 7 7 6 5 5 4 4 4 5
8 11 14 17 12 14 15 16 15 16 14 14 15 11 6 4 4 3 3 5 7 9 10 12 12 12 11 11 11 10 9 9 9 9 8 7 7 6 5 4 4 4 4 4
6 13 14 15 11 11 14 16 17 19 18 16 13 13 10 7 5 3 3 5 7 8 10 12 12 12 12 11 11 10 9 9 9 9 8 7 6 6 5 4 4 4 4 4
6 9 12 14 13 13 15 16 17 18 17 17 14 12 6 4 3 3 3 4 6 8 10 11 12 12 12 12 11 11 10 10 9 9 8 7 6 6 5 4 4 3 3 3
7 8 11 15 13 13 18 17 16 16 15 15 15 10 5 4 3 3 3 4 5 6 8 10 10 11 11 11 11 11 10 10 10 8 7 7 6 6 5 4 4 3 3 3
8 9 9 13 12 18 13 9 12 13 12 12 10 6 5 4 2 2 1 1 2 3 5 7 8 9 10 10 10 10 10 10 9 8 8 7 6 5 4 3 3 3 3 3
11 10 10 13 16 16 9 6 8 11 11 9 9 6 3 2 3 3 2 2 1 1 2 4 6 7 8 9 10 10 10 10 9 8 7 6 6 6 5 4 3 3 3 3
10 11 12 13 16 18 10 5 4 8 11 5 6 5 4 4 7 2 3 3 2 1 1 2 4 6 7 8 9 10 10 10 8 7 6 6 6 5 5 4 4 3 3 3
11 11 15 16 16 12 1 1 5 11 6 2 3 3 3 3 2 2 2 2 3 3 3 4 5 6 6 7 8 8 8 8 7 6 6 5 4 4 4 4 4 4 4 4
11 11 13 14 16 10 2 2 4 1 3 1 0 0 0 1 2 2 3 3 3 3 4 5 6 6 6 7 8 8 7 6 6 6 6 5 4 3 3 3 3 3 3 4
7 5 5 6 4 3 2 2 2 2 1 2 1 1 2 3 3 3 4 4 4 4 4 4 6 7 6 6 7 7 6 6 6 6 5 4 4 3 2 3 3 3 3 3
3 1 2 2 2 1 2 2 3 2 2 2 2 2 3 3 3 4 4 4 4 4 4 5 6 6 6 5 5 5 5 5 6 6 5 4 4 3 3 1 1 1 1 2
3 3 3 4 3 2 2 3 3 3 3 4 3 3 3 3 3 3 3 3 3 4 4 4 5 5 5 5 5 4 4 4 5 5 5 4 3 3 3 2 2 1 2 1
4 4 5 4 2 1 1 2 2 3 4 4 4 4 4 3 3 3 3 3 3 3 3 4 5 5 5 5 4 4 3 4 4 4 4 3 3 3 3 3 3 6 4 5
Wind_Direction
209 224 221 219 239 273 257 248 231 171 137 235 235 230 188 183 195 193 191 193 194 197 189 186 189 195 195 196 198 200 203 198 201 206 210 209 216 221 221 224 221 223 230 227
213 222 220 210 210 224 227 230 210 172 144 249 251 239 203 194 202 203 198 195 195 191 185 184 189 193 196 197 200 201 204 204 204 205 212 216 222 230 228 232 225 226 228 230
224 201 169 202 205 214 221 235 222 206 189 211 257 226 200 192 200 205 208 204 198 193 188 184 190 193 196 199 200 203 204 204 206 205 208 212 216 230 227 225 227 228 228 228
226 203 200 209 212 220 216 215 225 217 235 231 265 278 180 186 197 202 205 205 203 197 192 188 189 191 196 199 198 201 201 203 204 204 213 218 225 231 235 231 229 231 234 236
205 199 208 216 217 224 211 158 201 228 247 259 242 275 195 180 206 207 203 202 201 197 193 191 191 191 194 195 194 194 196 202 203 205 211 220 232 237 237 234 234 237 234 237
211 194 219 217 200 199 163 166 182 228 246 248 253 269 245 190 212 202 190 191 194 193 191 188 188 187 190 190 191 194 193 198 201 204 210 221 232 239 243 239 237 233 228 229
211 210 206 201 186 181 199 210 219 226 229 239 184 253 260 88 236 229 200 182 180 184 186 185 186 186 189 190 190 191 191 195 198 201 208 219 229 234 236 240 229 234 238 235
207 208 202 205 215 205 211 224 237 249 245 218 186 240 225 135 211 214 188 169 169 176 180 183 185 185 186 186 187 189 189 192 193 199 204 216 222 228 231 231 242 240 245 248
215 211 183 202 218 223 209 225 241 249 261 263 230 231 225 180 184 175 171 165 170 174 175 178 179 180 182 184 186 187 186 188 192 197 196 206 212 224 231 231 233 238 241 245
229 219 189 178 188 219 237 220 219 238 242 247 234 233 223 184 183 174 174 173 172 172 175 175 175 176 177 179 179 182 183 185 188 191 197 196 201 209 221 233 235 243 247 248
228 225 202 194 209 203 194 209 223 234 244 250 242 222 182 198 191 190 184 177 177 178 177 176 174 173 172 173 173 175 177 180 183 187 191 196 199 203 211 219 228 233 240 240
216 226 222 213 207 246 220 218 214 224 228 242 260 235 132 192 212 208 194 176 179 181 179 177 174 172 174 175 174 174 176 179 182 181 185 192 198 205 213 214 222 229 236 241
200 218 218 213 209 209 221 221 223 231 234 235 241 231 148 173 216 209 192 177 180 181 181 177 174 176 178 178 177 175 178 179 177 175 181 186 195 200 210 220 226 230 238 244
216 222 227 229 222 205 211 214 218 224 229 232 238 247 214 228 248 235 205 190 183 181 184 183 179 179 180 179 177 177 179 176 175 176 181 186 195 202 209 216 221 227 232 237
221 227 231 248 252 234 225 221 217 224 236 243 239 240 246 249 256 247 208 191 185 182 186 188 186 182 181 180 179 179 177 175 175 177 182 184 188 194 204 212 219 222 227 229
224 238 231 235 237 236 236 231 225 228 235 241 246 244 246 250 249 221 201 196 197 195 192 191 190 186 184 183 182 178 177 174 174 179 182 179 183 189 196 201 204 206 210 218
217 227 229 232 226 232 234 230 228 228 231 236 238 241 234 231 231 223 215 209 211 209 201 196 193 190 186 183 180 179 177 174 175 179 181 180 186 189 195 203 200 199 202 201
228 227 228 234 219 231 235 228 229 226 229 233 237 235 235 241 222 192 190 247 235 219 208 200 195 187 182 177 174 175 173 174 177 179 182 184 189 186 181 189 195 202 206 205
222 220 228 228 224 230 222 214 219 220 227 226 226 226 220 205 197 169 73 24 311 238 212 201 193 183 173 170 166 166 168 171 174 177 180 182 187 183 182 188 194 198 201 201
202 217 227 227 232 231 213 184 229 223 217 206 213 215 218 220 233 181 56 29 38 66 117 154 163 158 158 162 162 163 165 167 171 171 174 176 178 184 185 182 189 195 201 203
197 207 221 227 231 233 173 200 204 216 205 161 211 225 226 226 308 48 54 57 63 81 106 126 137 143 145 148 151 154 155 161 162 158 156 161 167 179 183 174 177 188 201 204
216 214 219 226 229 221 56 198 215 3 43 57 232 225 194 102 94 98 87 86 87 95 105 116 121 121 127 135 140 144 145 148 148 147 144 141 144 159 167 168 175 189 206 208
235 253 234 239 239 57 52 65 24 3 21 21 9 42 126 128 114 102 97 94 91 94 100 109 116 115 115 129 136 143 141 143 145 139 135 135 133 135 151 173 182 190 212 233
210 281 241 215 168 119 77 54 25 23 26 17 28 82 121 124 113 104 97 96 94 90 100 106 111 111 108 110 116 127 132 143 146 142 142 141 137 135 124 137 184 188 194 235
260 224 222 219 193 162 113 52 31 41 52 55 70 80 94 105 106 104 104 102 94 91 93 103 106 109 106 104 105 113 125 141 143 141 140 140 140 136 133 114 74 71 64 21
246 242 231 223 182 230 115 21 22 60 63 59 66 73 79 89 93 90 93 101 101 100 99 104 105 107 107 106 101 97 110 128 136 139 143 148 150 150 150 136 116 64 60 65
Height
1519 1516 1514 1513 1513 1514 1514 1516 1518 1517 1516 1517 1517 1518 1520 1525 1528 1530 1533 1536 1539 1541 1544 1547 1548 1550 1552 1553 1554 1556 1558 1559 1560 1561 1563 1564 1565 1566 1567 1568 1569 1570 1571 1572
1517 1515 1512 1514 1516 1516 1516 1518 1517 1517 1517 1517 1516 1517 1517 1521 1524 1527 1530 1533 1536 1539 1542 1544 1546 1548 1550 1551 1553 1554 1555 1557 1558 1559 1560 1561 1563 1564 1565 1566 1566 1568 1569 1570
1514 1511 1515 1516 1517 1517 1516 1515 1515 1517 1517 1515 1516 1517 1516 1517 1522 1525 1527 1530 1533 1536 1539 1542 1544 1546 1548 1549 1550 1552 1553 1555 1556 1557 1559 1559 1560 1561 1563 1563 1564 1565 1566 1567
1510 1511 1515 1515 1514 1514 1517 1512 1514 1516 1518 1516 1518 1522 1513 1512 1517 1520 1523 1526 1529 1533 1536 1539 1541 1543 1545 1547 1549 1550 1551 1553 1554 1555 1556 1558 1559 1559 1560 1561 1562 1562 1563 1564
1510 1511 1513 1514 1512 1511 1512 1513 1514 1515 1517 1519 1516 1521 1512 1509 1513 1513 1517 1521 1525 1529 1533 1536 1538 1541 1543 1545 1546 1548 1549 1550 1552 1553 1554 1555 1557 1557 1558 1558 1559 1559 1560 1561
1507 1511 1510 1508 1510 1511 1514 1515 1517 1515 1514 1529 1520 1523 1518 1505 1507 1508 1512 1517 1522 1526 1530 1533 1536 1539 1540 1543 1544 1546 1546 1548 1549 1550 1552 1553 1554 1555 1555 1556 1556 1557 1558 1559
1512 1509 1508 1509 1511 1513 1512 1518 1528 1531 1529 1526 1517 1522 1514 1503 1504 1507 1509 1514 1519 1523 1527 1530 1533 1536 1538 1540 1542 1543 1544 1546 1547 1548 1549 1551 1552 1552 1553 1553 1554 1555 1556 1557
1512 1511 1504 1505 1506 1507 1509 1510 1527 1536 1531 1520 1520 1520 1506 1502 1505 1508 1509 1512 1517 1520 1524 1527 1531 1533 1536 1538 1540 1541 1542 1544 1545 1546 1547 1549 1550 1551 1552 1551 1552 1553 1553 1554
1502 1505 1499 1502 1502 1502 1507 1507 1500 1513 1520 1524 1515 1510 1502 1501 1503 1505 1508 1511 1515 1518 1522 1525 1528 1531 1534 1536 1538 1540 1541 1542 1544 1545 1546 1547 1548 1548 1549 1549 1549 1550 1551 1551
1496 1505 1499 1502 1504 1505 1501 1500 1508 1514 1531 1534 1522 1516 1507 1501 1501 1502 1506 1509 1513 1517 1520 1523 1526 1529 1532 1534 1536 1538 1539 1541 1542 1543 1545 1546 1546 1546 1547 1548 1548 1548 1548 1549
1496 1504 1501 1501 1503 1501 1506 1507 1505 1508 1510 1524 1527 1515 1493 1497 1498 1500 1504 1508 1511 1514 1518 1521 1524 1527 1530 1532 1534 1536 1537 1539 1540 1542 1543 1544 1545 1545 1545 1546 1546 1546 1546 1546
1496 1498 1501 1497 1493 1494 1495 1497 1503 1515 1518 1515 1515 1509 1491 1495 1497 1500 1502 1507 1510 1513 1516 1519 1522 1525 1528 1530 1533 1534 1536 1537 1539 1540 1541 1542 1543 1543 1544 1544 1544 1544 1544 1544
1496 1500 1509 1506 1503 1500 1498 1495 1496 1498 1505 1510 1515 1507 1491 1496 1498 1500 1503 1506 1508 1511 1514 1517 1520 1522 1525 1528 1530 1532 1534 1536 1537 1538 1539 1540 1541 1541 1542 1542 1542 1542 1542 1542
1497 1496 1499 1500 1493 1490 1496 1495 1495 1498 1503 1506 1505 1498 1492 1493 1496 1499 1502 1504 1506 1509 1512 1514 1517 1520 1522 1525 1527 1530 1532 1533 1535 1536 1537 1538 1539 1540 1540 1540 1540 1540 1540 1539
1496 1495 1492 1488 1483 1484 1488 1490 1492 1495 1493 1497 1495 1494 1491 1491 1494 1497 1500 1502 1504 1506 1509 1511 1514 1516 1519 1522 1524 1526 1529 1530 1532 1533 1535 1535 1536 1537 1538 1538 1538 1538 1537 1537
1496 1495 1492 1492 1486 1486 1488 1485 1486 1489 1488 1489 1489 1489 1487 1491 1494 1497 1499 1500 1502 1503 1506 1508 1511 1513 1515 1518 1520 1523 1525 1527 1529 1531 1532 1533 1534 1535 1535 1535 1535 1535 1535 1535
1494 1496 1496 1493 1486 1489 1493 1483 1483 1484 1484 1485 1489 1487 1487 1490 1493 1495 1497 1498 1500 1501 1503 1505 1507 1509 1511 1514 1517 1519 1522 1524 1526 1528 1529 1531 1531 1532 1533 1533 1533 1533 1533 1532
1496 1497 1494 1490 1493 1505 1482 1474 1476 1480 1482 1482 1483 1485 1487 1490 1493 1495 1496 1497 1498 1499 1500 1502 1504 1506 1508 1511 1513 1516 1519 1521 1523 1525 1526 1528 1529 1530 1530 1530 1530 1530 1530 1530
1493 1495 1491 1488 1492 1487 1480 1478 1478 1481 1483 1482 1483 1486 1488 1490 1492 1493 1495 1496 1497 1497 1498 1499 1501 1503 1505 1507 1509 1512 1515 1518 1520 1522 1523 1524 1526 1526 1526 1526 1527 1527 1527 1527
1490 1492 1490 1487 1491 1490 1477 1477 1480 1482 1486 1483 1484 1486 1487 1488 1486 1489 1494 1495 1495 1495 1495 1496 1498 1500 1502 1504 1506 1509 1511 1514 1516 1518 1520 1521 1522 1522 1523 1523 1524 1525 1524 1524
1487 1489 1486 1484 1485 1475 1477 1479 1481 1487 1484 1485 1485 1486 1487 1488 1489 1493 1493 1493 1493 1493 1493 1494 1496 1497 1499 1501 1504 1506 1508 1510 1512 1514 1516 1518 1519 1520 1520 1520 1521 1521 1521 1521
1479 1480 1482 1480 1482 1480 1482 1480 1481 1484 1486 1486 1487 1488 1489 1490 1491 1492 1492 1492 1493 1493 1493 1494 1495 1496 1497 1499 1502 1504 1506 1508 1509 1512 1513 1515 1516 1517 1518 1517 1518 1518 1519 1519
1477 1477 1473 1477 1480 1484 1484 1485 1487 1487 1487 1487 1488 1488 1489 1490 1491 1492 1492 1492 1493 1493 1493 1494 1495 1495 1497 1499 1500 1502 1503 1505 1507 1509 1511 1513 1513 1514 1515 1515 1515 1515 1516 1517
1482 1484 1481 1482 1483 1485 1487 1487 1488 1488 1488 1488 1489 1489 1489 1490 1491 1492 1492 1492 1493 1493 1493 1494 1495 1496 1496 1498 1499 1501 1502 1504 1505 1507 1508 1510 1511 1511 1512 1512 1513 1513 1512 1513
1483 1483 1482 1483 1485 1486 1488 1489 1489 1489 1488 1488 1489 1490 1490 1490 1491 1492 1492 1493 1493 1494 1494 1494 1495 1496 1497 1497 1498 1500 1501 1502 1504 1505 1506 1507 1508 1508 1508 1509 1510 1510 1509 1508
1485 1484 1482 1482 1486 1487 1489 1490 1490 1489 1489 1489 1489 1490 1491 1491 1491 1492 1492 1493 1493 1494 1494 1495 1496 1496 1497 1498 1498 1499 1500 1501 1502 1503 1504 1505 1506 1506 1506 1506 1506 1506 1507 1506